This demonstration page uses our WeatherBlox Daily Observations layout. Learn more.

Left ArrowRight Arrow

38.20091, -84.87328

Hourly Observations for July 25, 2015

Temp ( °F °C ) Dew Point ( °F °C ) Humidity (%) Winds ( mph kmh ) Pressure ( in mb ) Visibility ( mi km ) Precip ( " mm )
12:53 am 00:53 Clear 67 19.4 63 17.2 87 87 Calm 29.98 1015 10 16 0.00 0.00
1:53 am 01:53 Clear 65 18.3 62 16.7 90 90 Calm 29.98 1015 10 16 0.00 0.00
2:53 am 02:53 Clear 65 18.3 63 17.2 93 93 Calm 29.97 1015 9 14 0.00 0.00
3:53 am 03:53 Clear 64 17.8 62 16.7 93 93 Calm 29.97 1015 10 16 0.00 0.00
4:53 am 04:53 Clear 63 17.2 61 16.1 93 93 Calm 29.96 1015 10 16 0.00 0.00
5:53 am 05:53 Clear 63 17.2 61 16.1 93 93 Calm 29.97 1015 9 14 0.00 0.00
6:53 am 06:53 Sunny 63 17.2 60 15.6 90 90 N 3 6 29.99 1016 8 13 0.00 0.00
7:53 am 07:53 Sunny 66 18.9 63 17.2 90 90 Calm 29.99 1016 9 14 0.00 0.00
8:53 am 08:53 Sunny 71 21.7 64 17.8 79 79 Calm 29.99 1016 10 16 0.00 0.00
9:53 am 09:53 Sunny 75 23.9 65 18.3 71 71 SE 3 6 29.99 1016 10 16 0.00 0.00
10:53 am 10:53 Sunny 80 26.7 64 17.8 58 58 VRB 5 7 30.01 1016 10 16 0.00 0.00
11:53 am 11:53 Mostly Sunny 82 27.8 62 16.7 51 51 VRB 3 6 30.02 1017 10 16 0.00 0.00
12:53 pm 12:53 Sunny 84 28.9 64 17.8 51 51 VRB 3 6 30.00 1016 10 16 0.00 0.00
1:53 pm 13:53 Sunny 85 29.4 61 16.1 45 45 WSW 3 6 29.98 1015 10 16 0.00 0.00
2:53 pm 14:53 Sunny 85 29.4 62 16.7 46 46 Calm 29.96 1015 10 16 0.00 0.00
3:53 pm 15:53 Mostly Sunny 85 29.4 64 17.8 50 50 S 5 7 29.96 1015 10 16 0.00 0.00
4:53 pm 16:53 Sunny 86 30 64 17.8 48 48 W 5 7 29.95 1014 10 16 0.00 0.00
5:53 pm 17:53 Sunny 85 29.4 63 17.2 48 48 Calm 29.94 1014 10 16 0.00 0.00
6:53 pm 18:53 Sunny 86 30 63 17.2 46 46 Calm 29.92 1013 10 16 0.00 0.00
7:53 pm 19:53 Sunny 83 28.3 65 18.3 55 55 SE 5 7 29.93 1013 10 16 0.00 0.00
8:53 pm 20:53 Sunny 80 26.7 66 18.9 62 62 W 3 6 29.94 1014 10 16 0.00 0.00
9:53 pm 21:53 Clear 76 24.4 67 19.4 74 74 Calm 29.94 1014 10 16 0.00 0.00
10:53 pm 22:53 Clear 75 23.9 67 19.4 76 76 Calm 29.96 1014 10 16 0.00 0.00
11:53 pm 23:53 Clear 73 22.8 67 19.4 81 81 Calm 29.96 1014 10 16 0.00 0.00

Powered by AerisWeather